Regional Weather Roundup
Issued by NWS

Home | Current Version | Previous Version | Graphics & Text | Print | Product List | Glossary On
Versions: 1 2 3 4 5 6 7 8 9 10 11 12 13 14 15 16 17 18 19 20 21 22 23 24 25 26 27 28 29 30 31 32 33 34 35 36 37 38 39 40 41 42 43 44 45 46 47 48 49 50
000
ASUS43 KMKX 282100
RWRWI

WISCONSIN REGIONAL WEATHER ROUNDUP
NATIONAL WEATHER SERVICE MILWAUKEE/SULLIVAN WI
400 PM CDT MON JUL 28 2014

NOTE: "FAIR" INDICATES FEW OR NO CLOUDS BELOW 12,000 FEET WITH NO
SIGNIFICANT WEATHER AND/OR OBSTRUCTIONS TO VISIBILITY.

WIZ001-002-006>008-014>016-023>028-282200-
NORTHWEST WISCONSIN

CITY           SKY/WX    TMP DP  RH WIND       PRES   REMARKS
SUPERIOR ARPT  PTSUNNY   74  54  48 N7        30.12F
ASHLAND        CLOUDY    72  55  55 NW8       30.11F
HAYWARD        MOSUNNY   73  49  42 N8        30.14F
SIREN          PTSUNNY   74  49  41 N9        30.15F
RICE LAKE      MOSUNNY   73  50  45 NW9       30.17S
LADYSMITH      PTSUNNY   74  52  46 NW15      30.15F
EAU CLAIRE     NOT AVBL
MENOMONIE      CLOUDY    74  47  39 W7        30.15F
NEW RICHMOND   SUNNY     74  49  41 NW7       30.17F
OSCEOLA        MOSUNNY   74  53  47 W8        30.19S
$$

WIZ003>005-009-010-017-018-282200-
NORTH CENTRAL WISCONSIN

CITY           SKY/WX    TMP DP  RH WIND       PRES   REMARKS
WOODRUFF       PTSUNNY   72  53  50 NW13      30.12S
RHINELANDER    CLOUDY    69  51  52 NW8       30.11F
EAGLE RIVER    CLOUDY    68  48  48 NW7G16    30.10S
LAND O LAKES   PTSUNNY   69  47  45 NW12G21   30.11S
PHILLIPS       CLOUDY    68  50  51 N6        30.12S
TOMAHAWK       CLOUDY    68  49  50 N5        30.12S
MEDFORD        PTSUNNY   68  53  57 NW9       30.13S
MERRILL        PTSUNNY   70  53  55 N8        30.10S
$$

WIZ029-030-035-036-043>047-282200-
CENTRAL WISCONSIN

CITY           SKY/WX    TMP DP  RH WIND       PRES   REMARKS
WAUSAU         CLOUDY    73  50  44 NW10      30.08S
MOSINEE        NOT AVBL
MARSHFIELD     PTSUNNY   73  52  47 NW15      30.11F
STEVENS POINT  MOSUNNY   71  49  45 NW6       30.10S
WAUPACA        PTSUNNY   75  48  38 N13G24    30.08S
WAUTOMA        NOT AVBL
WISC RAPIDS    MOSUNNY   74  50  42 NW14      30.11F
CAMP DOUGLAS   NOT AVBL
$$

WIZ011>013-019>022-031-037>040-048>050-282200-
NORTHEAST WISCONSIN

CITY           SKY/WX    TMP DP  RH WIND       PRES   REMARKS
ANTIGO         CLOUDY    68  50  52 N10       30.10S
STURGEON BAY   PTSUNNY   66  48  52 E7        30.06S
GREEN BAY      CLOUDY    72  54  53 VRB3      30.05F
MANITOWOC      NOT AVBL
APPLETON       PTSUNNY   72  48  43 N12G17    30.07F
CLINTONVILLE   MOSUNNY   73  45  35 NW12G18   30.06S
OSHKOSH        PTSUNNY   73  52  47 N9        30.06F
$$

WIZ032>034-041-042-053>061-282200-
SOUTHWEST WISCONSIN

CITY           SKY/WX    TMP DP  RH WIND       PRES   REMARKS
LA CROSSE      PTSUNNY   75  49  39 N12       30.13F
SPARTA         CLOUDY    73  47  38 NW7       30.14F
VIROQUA        MOCLDY    71  50  47 NW9       30.15F
BOSCOBEL       PTSUNNY   75  49  39 N6        30.14S
PRAIRIE DU CHI CLOUDY    73  44  36 N6        30.14S
PLATTEVILLE    FAIR      71  49  46 NW7       30.15S
$$

WIZ056-057-062-063-064-067-068-282200-
SOUTH CENTRAL WISCONSIN

CITY           SKY/WX    TMP DP  RH WIND       PRES   REMARKS
BARABOO/DELLS  CLOUDY    70  47  43 NW10G18   30.12S
LONE ROCK      NOT AVBL
WATERTOWN      PTSUNNY   71  51  50 NW12      30.09S
MADISON        PTSUNNY   74  50  42 NW13G18   30.10F
MIDDLETON      CLOUDY    74  46  37 N6G23     30.11F
MONROE         PTSUNNY   72  50  46 N5        30.12S
JANESVILLE     PTSUNNY   75  45  33 N10       30.10S
$$

WIZ051-052-058>065-066-070>072-282200-
SOUTHEAST WISCONSIN

CITY           SKY/WX    TMP DP  RH WIND       PRES   REMARKS
MILWAUKEE      PTSUNNY   65  51  60 E10       30.09F
WAUKESHA       NOT AVBL
MILWAUKEE/TIMM SUNNY     70  46  43 NE16      30.09F
RACINE         SUNNY     65  50  58 N10       30.11S
BURLINGTON     PTSUNNY   69  48  47 N9G17     30.09S
KENOSHA        MOSUNNY   69  52  54 NE9       30.09S
FOND DU LAC    MOSUNNY   74  51  44 NW12      30.07F
SHEBOYGAN      MOSUNNY   65  50  58 E7        30.08S
WEST BEND      MOSUNNY   70  48  46 N7        30.08F
JUNEAU         PTSUNNY   70  46  41 NW10      30.09F
$$

LSZ147-162-282200-
LAKE SUPERIOR

STATION/POSITION TIME  TEMP    WIND        PRES    WAVE
                       AIR SEA DIR/SP/G            HT/PER
                 (UTC) (F)     (DEG/KT/KT) (MB)    (FT/S)
W MID LAKE BUOY  1950   51 44  240/ 12/ 12 1018.3F   1
PORT WING        2000   70     250/  6/ 11 1020.0F
SAXON HARBOR     2000             CALM     1019.6F
$$

LMZ867-665-643>646-282200-
LAKE MICHIGAN

STATION/POSITION TIME  TEMP    WIND        PRES    WAVE
                       AIR SEA DIR/SP/G            HT/PER
                 (UTC) (F)     (DEG/KT/KT) (MB)    (FT/S)
N MID LAKE BUOY  1950   55 55  200/  6/  8 1017.0F   1/ 5
NORTHPORT PIER   2000   65     320/  5/  7 1017.3F
SISTER BAY       1910   73        CALM       N/A
KEWAUNEE LAKESHO 2000   56     180/  5/  6 1019.2F
SHEBOYGAN LAKESH 2000   56      60/  1/  2 1019.3R
PORT WASHINGTON  2000   60      50/  4/  6 1019.3F
ATWATER BUOY     2000   61      30/ 10     1019.9R
MILWAUKEE LAKESH 2000   60      40/ 11/ 12   N/A
S MID LAKE BUOY  1950   57 60  330/ 19/ 23 1018.2R   6/ 6
KENOSHA   LAKESH 2000   60      30/ 16/ 17 1018.6S
$$

TC  - TEMPERATURE IN CELSIUS
VSB - VISIBILITY IN STATUTE MILES
WCI - WIND CHILL INDEX
HX  - HEAT INDEX




USA.gov is the U.S. government's official web portal to all federal, state and local government web resources and services.